[[{"header":{"parameterUnit":"m.s-1","parameterCategory":1,"la1":30.2991,"la2":30.254,"lo1":-89.0895,"lo2":-89.0444,"dy":0.0017,"dx":0.0017,"nx":28,"ny":28,"refTime":"2024-07-08T21:00:00:Z","depth":0,"parameterNumber":2,"parameterNumberName":"U-component_of_WINDS"},"data":[0,0,0,0,0,0,0,0,0,0,0,0,0,0,0,0,0,0,0,0,0,0,0,0,0,0,0,0,0,0,0,0,0,0,0,0,0,0,0,0,0,0,0,0,0,0,0,0,0,0,0,0,0,0,0,0,0,0,3.9224,3.9226,0,3.9401,3.9403,3.9405,3.9373,3.9369,3.9366,3.9363,3.9545,3.9553,3.956,0,0,0,0,0,0,0,0,0,0,0,0,0,3.8856,3.8863,3.9224,3.9226,3.9228,3.9401,3.9403,3.9406,3.9373,3.9369,3.9365,3.9362,3.9543,3.9552,3.9561,0,0,0,0,0,0,0,0,0,0,0,0,0,3.9023,3.8866,3.9224,3.9233,3.9236,3.94,3.9403,3.9406,3.9374,3.9369,3.9364,3.936,3.954,3.9551,3.9562,3.9729,0,0,3.9598,3.9603,0,0,0,0,0,0,0,0,3.9014,3.9037,3.9229,3.9233,3.9236,3.936,3.934,3.9515,3.9375,3.9321,3.9363,3.9358,3.9487,3.9503,3.9547,3.9738,3.9745,3.9599,3.9606,3.9611,3.9614,0,0,0,0,0,0,0,3.9002,3.9029,3.9294,3.9232,3.9236,3.9228,3.9246,3.9373,3.9429,3.9326,3.9324,3.9345,3.9488,3.9535,3.9551,3.9748,3.9599,3.9609,3.9616,3.9621,4.0083,4.0088,0,0,0,0,0,0,3.8988,3.9019,3.9288,3.9299,3.9111,3.9238,3.9259,3.9325,3.9427,3.9438,3.9349,3.9343,3.9518,3.9537,3.9557,3.9757,3.9611,3.9622,3.9629,4.0077,4.0084,4.0089,0,0,0,0,0,0,3.898,3.9012,3.9281,3.9159,3.9193,3.925,3.9324,3.9331,3.9378,3.9445,3.9455,3.9387,3.9515,3.9541,3.9686,3.9763,3.9627,3.9638,4.0071,4.0079,4.0087,4.016,0,0,0,0,0,0,3.897,3.9009,3.9074,3.9161,3.9199,3.9408,3.9329,3.9338,3.9398,3.9392,3.9483,3.9494,3.9513,3.9669,3.9698,3.9777,3.9647,4.0064,4.0075,4.0084,4.0151,4.017,4.0186,0,0,0,0,0,3.8957,3.9088,3.9077,3.911,3.9281,3.9413,3.9435,3.9454,3.9405,3.9469,3.9512,3.9491,3.975,3.9684,3.9716,3.98,4.006,4.0072,4.0083,4.0143,4.0166,4.0185,0,0,0,0,0,0,3.9009,3.91,3.9089,3.9252,3.9325,3.9407,3.9489,3.9478,3.9566,3.9556,3.9577,3.9598,3.9745,3.9787,3.9712,3.9966,3.9898,3.9917,3.9933,3.9955,3.9972,3.9958,3.9657,0,0,0,0,0,3.904,3.9139,3.9213,3.935,3.9387,3.9432,3.949,3.9499,3.9575,3.9605,3.9659,3.9733,3.9831,3.9895,3.999,4.0157,4.0176,4.0231,4.0248,4.0262,4.0277,4.0367,4.0392,4.0128,4.0128,4.0128,0,0,3.9104,3.9166,3.9228,3.9362,3.942,3.9521,3.9458,3.9569,3.9645,3.9622,3.9762,3.9804,3.9889,4.0045,4.0117,4.0085,4.0354,4.0277,4.0287,4.0296,4.0382,4.0407,4.0429,4.0136,4.0135,4.0134,0,0,3.9273,3.9331,3.945,3.9509,3.9596,3.9624,3.9653,3.9737,3.9763,3.9904,3.9889,3.9979,4.0148,4.0208,4.0261,4.0451,4.0434,4.0481,4.0571,4.0658,4.0679,4.0697,4.0763,4.0787,4.0497,4.0497,4.0497,0,3.9342,3.9495,3.9513,3.9625,3.9684,3.9668,3.9789,3.9845,3.9958,3.9999,3.9962,4.0172,4.0228,4.0397,4.0443,4.0488,4.052,4.0471,4.0674,4.0693,4.0711,4.0774,4.0799,4.0502,4.0502,4.0501,4.0501,0,3.9575,3.9681,3.9767,3.9876,3.9945,4.0061,4.0096,4.0163,4.0166,4.0198,4.0341,4.0407,4.0513,4.0554,4.0558,4.0725,4.0702,4.0669,4.0601,4.074,4.08,4.0824,4.0509,4.0508,4.0506,4.0505,0,0,3.9783,3.9899,3.993,3.9979,4.0073,4.0155,4.027,4.0373,4.043,4.0509,4.0604,4.0747,4.0717,4.0777,4.0787,4.0864,4.1008,4.0822,4.0824,4.0853,4.1193,4.1215,4.1243,4.0998,4.1002,4.1006,4.1185,0,3.9959,4.0161,4.018,4.0361,4.0458,4.0443,4.0543,4.0611,4.0644,4.0731,4.0768,4.0868,4.0822,4.0857,4.0933,4.0974,4.1076,4.0962,4.1086,4.109,4.1063,4.1275,4.13,4.1465,4.1209,4.1213,4.1215,0,4.0193,4.0277,4.0467,4.0546,4.0587,4.0677,4.0771,4.0855,4.0932,4.095,4.1017,4.1016,4.1133,4.1061,4.1222,4.1144,4.1195,4.1223,4.123,4.1242,4.116,4.129,4.1519,4.1543,4.1253,4.125,4.1247,0,4.0323,4.0484,4.0618,4.066,4.0756,4.0819,4.0861,4.0933,4.0993,4.1077,4.1116,4.1212,4.1264,4.1338,4.1363,4.1309,4.1523,4.1453,4.154,4.1539,4.1585,4.1581,4.1823,4.1621,4.1621,4.162,4.162,0,4.0517,4.0634,4.0678,4.076,4.089,4.091,4.1037,4.1077,4.114,4.123,4.1223,4.1307,4.1336,4.1424,4.1445,4.1573,4.1598,4.1615,4.1619,4.1615,4.1613,4.1648,4.1637,4.1627,4.1625,4.1624,4.1623,0,4.0685,4.0719,4.0864,4.0942,4.0964,4.1056,4.1122,4.1201,4.1232,4.1345,4.1373,4.1422,4.1526,4.1558,4.1684,4.1697,4.1847,4.1842,4.1821,4.1821,4.1905,4.1896,4.2177,4.2215,4.1989,4.1991,4.1993,0,4.0806,4.0895,4.0982,4.1041,4.1086,4.1182,4.1242,4.1265,4.1329,4.1422,4.1489,4.1591,4.1674,4.184,4.1887,4.1982,4.1978,4.207,4.1992,4.1985,4.1977,4.1971,4.1979,4.2084,4.2086,4.2088,4.209,0,4.1017,4.1029,4.1117,4.1211,4.1284,4.1359,4.1431,4.148,4.1513,4.1585,4.169,4.1754,4.1881,4.1982,4.2079,4.2122,4.2112,4.2114,4.2139,4.2135,4.2119,4.2127,4.1859,4.2107,4.2106,4.2104,4.2103,4.2103,4.1164,4.1242,4.1315,4.1412,4.1469,4.1536,4.1613,4.1653,4.1742,4.1846,4.1854,4.1968,4.204,4.2169,4.2217,4.2305,4.2279,4.2315,4.2324,4.2333,4.2338,4.2106,4.2323,4.2323,4.2323,4.2322,4.2322,0,4.1373,4.1419,4.1509,4.1609,4.1686,4.1669,4.1747,4.1812,4.1912,4.198,4.2061,4.2181,4.2279,4.2333,4.243,4.249,4.2488,4.2515,4.251,4.252,4.2358,4.2325,4.2515,4.2515,4.2515,4.2515,4.2515,4.2515,4.1491,4.1621,4.1641,4.1798,4.1843,4.1953,4.1999,4.2061,4.2115,4.2249,4.233,4.2364,4.2426,4.2527,4.2616,4.2629,4.2664,4.2694,4.2704,4.2551,4.2532,4.2513,4.2482,4.2702,4.2702,4.2859,4.286,4.2862]},{"header":{"parameterUnit":"m.s-1","parameterCategory":1,"la1":30.2991,"la2":30.254,"lo1":-89.0895,"lo2":-89.0444,"dy":0.0017,"dx":0.0017,"nx":28,"ny":28,"refTime":"2024-07-08T21:00:00:Z","depth":0,"parameterNumber":3,"parameterNumberName":"V-component_of_WINDS"},"data":[0,0,0,0,0,0,0,0,0,0,0,0,0,0,0,0,0,0,0,0,0,0,0,0,0,0,0,0,0,0,0,0,0,0,0,0,0,0,0,0,0,0,0,0,0,0,0,0,0,0,0,0,0,0,0,0,0,0,-0.0931,-0.0931,0,-0.0963,-0.0964,-0.0964,-0.0993,-0.0993,-0.0994,-0.0994,-0.1027,-0.1028,-0.1029,0,0,0,0,0,0,0,0,0,0,0,0,0,-0.0894,-0.0895,-0.0931,-0.0931,-0.0931,-0.0963,-0.0964,-0.0964,-0.0993,-0.0993,-0.0994,-0.0994,-0.1027,-0.1028,-0.1029,0,0,0,0,0,0,0,0,0,0,0,0,0,-0.0917,-0.0895,-0.093,-0.095,-0.0952,-0.0963,-0.0964,-0.0964,-0.0993,-0.0993,-0.0994,-0.0994,-0.1027,-0.1028,-0.1029,-0.1024,0,0,-0.1031,-0.1032,0,0,0,0,0,0,0,0,-0.0915,-0.0918,-0.0946,-0.0948,-0.0951,-0.0975,-0.0963,-0.0984,-0.0993,-0.0977,-0.0994,-0.0995,-0.1009,-0.1012,-0.1017,-0.1025,-0.1027,-0.1031,-0.1032,-0.1032,-0.1032,0,0,0,0,0,0,0,-0.0914,-0.0917,-0.0943,-0.0947,-0.0949,-0.0957,-0.0961,-0.0967,-0.099,-0.0979,-0.0981,-0.0984,-0.1011,-0.1016,-0.1018,-0.1027,-0.1031,-0.1032,-0.1033,-0.1033,-0.1034,-0.1034,0,0,0,0,0,0,-0.0909,-0.0915,-0.0942,-0.0944,-0.0934,-0.0957,-0.0961,-0.0966,-0.099,-0.0994,-0.0984,-0.0986,-0.1014,-0.1017,-0.1019,-0.1015,-0.1032,-0.1033,-0.1034,-0.1034,-0.1034,-0.1033,0,0,0,0,0,0,-0.0908,-0.0911,-0.0941,-0.0931,-0.0935,-0.0957,-0.0963,-0.0967,-0.0972,-0.0994,-0.0998,-0.0985,-0.1015,-0.1018,-0.1022,-0.1016,-0.1033,-0.1034,-0.1035,-0.1034,-0.1034,-0.1006,0,0,0,0,0,0,-0.0907,-0.0911,-0.0909,-0.093,-0.0935,-0.0944,-0.0962,-0.0967,-0.0973,-0.0976,-0.0996,-0.1,-0.1015,-0.1021,-0.1023,-0.1018,-0.1035,-0.1036,-0.1035,-0.1034,-0.1008,-0.1005,-0.1002,0,0,0,0,0,-0.0906,-0.09,-0.0909,-0.0912,-0.0933,-0.0943,-0.0946,-0.0964,-0.0973,-0.0971,-0.0986,-0.0999,-0.1017,-0.1021,-0.1024,-0.1019,-0.1036,-0.1035,-0.1034,-0.1009,-0.1005,-0.1002,0,0,0,0,0,0,-0.0877,-0.0903,-0.0913,-0.0914,-0.0926,-0.0948,-0.0946,-0.0959,-0.0969,-0.0971,-0.0993,-0.0998,-0.1,-0.101,-0.1014,-0.1016,-0.1029,-0.1028,-0.1009,-0.1005,-0.1003,-0.1,-0.1036,0,0,0,0,0,-0.087,-0.0876,-0.0899,-0.0897,-0.0903,-0.0924,-0.0929,-0.0941,-0.0955,-0.096,-0.0975,-0.0988,-0.0997,-0.1002,-0.1011,-0.101,-0.1015,-0.1008,-0.1005,-0.1003,-0.1002,-0.1003,-0.1,-0.103,-0.103,-0.103,0,0,-0.0857,-0.0872,-0.0874,-0.0892,-0.0903,-0.0909,-0.0928,-0.0933,-0.0937,-0.0961,-0.0966,-0.0978,-0.0994,-0.0996,-0.0997,-0.1004,-0.0995,-0.1001,-0.0999,-0.1,-0.1001,-0.0998,-0.0996,-0.1029,-0.1029,-0.1029,0,0,-0.0836,-0.0848,-0.0848,-0.0859,-0.0876,-0.089,-0.089,-0.0911,-0.0919,-0.0925,-0.0943,-0.0949,-0.0963,-0.0974,-0.0982,-0.0966,-0.0979,-0.0969,-0.0953,-0.0954,-0.0952,-0.095,-0.0944,-0.0942,-0.0968,-0.0968,-0.0968,0,-0.0817,-0.0827,-0.0847,-0.0851,-0.0858,-0.0881,-0.0881,-0.0891,-0.091,-0.0914,-0.0922,-0.0941,-0.0953,-0.0958,-0.0955,-0.096,-0.0961,-0.0966,-0.095,-0.0949,-0.0947,-0.0942,-0.094,-0.0966,-0.0966,-0.0967,-0.0967,0,-0.0803,-0.0809,-0.0808,-0.0825,-0.0833,-0.0835,-0.0856,-0.0861,-0.0873,-0.0887,-0.0893,-0.0909,-0.0922,-0.0924,-0.0936,-0.0931,-0.0935,-0.0946,-0.0959,-0.0942,-0.0938,-0.0936,-0.0964,-0.0965,-0.0965,-0.0965,0,0,-0.0763,-0.0793,-0.0792,-0.0801,-0.0822,-0.0827,-0.0831,-0.0844,-0.0848,-0.086,-0.0864,-0.0877,-0.0887,-0.0896,-0.091,-0.091,-0.0897,-0.0922,-0.0922,-0.0916,-0.0893,-0.0884,-0.0881,-0.0907,-0.0906,-0.0906,-0.0892,0,-0.0745,-0.0753,-0.0772,-0.0774,-0.078,-0.0802,-0.0806,-0.0819,-0.0832,-0.084,-0.0854,-0.0863,-0.0876,-0.0882,-0.0883,-0.0898,-0.0893,-0.09,-0.0911,-0.0911,-0.0905,-0.0879,-0.0869,-0.0855,-0.089,-0.089,-0.089,0,-0.0725,-0.0736,-0.0739,-0.0761,-0.0764,-0.0766,-0.078,-0.0787,-0.0803,-0.0813,-0.0823,-0.0839,-0.0844,-0.0857,-0.0866,-0.087,-0.0876,-0.0884,-0.0884,-0.0885,-0.0898,-0.0879,-0.0851,-0.0848,-0.0887,-0.0887,-0.0888,0,-0.0695,-0.0712,-0.0715,-0.0722,-0.0747,-0.0749,-0.0759,-0.0776,-0.0783,-0.0795,-0.08,-0.0813,-0.082,-0.083,-0.0849,-0.0856,-0.0855,-0.087,-0.0863,-0.0863,-0.0861,-0.0861,-0.0833,-0.0866,-0.0866,-0.0866,-0.0866,0,-0.0673,-0.0673,-0.0703,-0.0705,-0.0707,-0.0729,-0.073,-0.0743,-0.0758,-0.0763,-0.0784,-0.0788,-0.0814,-0.0821,-0.0837,-0.0841,-0.0845,-0.0853,-0.0856,-0.085,-0.0849,-0.0854,-0.0855,-0.0865,-0.0866,-0.0866,-0.0866,0,-0.0639,-0.0659,-0.0665,-0.0688,-0.0694,-0.0695,-0.0715,-0.0718,-0.0733,-0.074,-0.0743,-0.0766,-0.0777,-0.0797,-0.0813,-0.0823,-0.0825,-0.0832,-0.0819,-0.0821,-0.0814,-0.0814,-0.0787,-0.0785,-0.082,-0.0819,-0.0819,0,-0.0623,-0.0624,-0.0648,-0.0654,-0.0663,-0.0672,-0.0679,-0.0701,-0.0708,-0.0727,-0.0728,-0.0741,-0.0751,-0.0767,-0.0786,-0.0799,-0.0806,-0.0796,-0.0808,-0.0802,-0.0805,-0.0805,-0.0805,-0.0792,-0.0792,-0.0792,-0.0791,0,-0.0593,-0.0603,-0.0612,-0.0626,-0.0634,-0.0646,-0.0658,-0.0662,-0.0687,-0.0694,-0.0705,-0.0713,-0.073,-0.0742,-0.0758,-0.0769,-0.0784,-0.0787,-0.0787,-0.078,-0.0772,-0.0776,-0.0811,-0.0788,-0.0788,-0.0788,-0.0788,-0.0789,-0.0567,-0.0569,-0.0587,-0.0597,-0.061,-0.0621,-0.0626,-0.0642,-0.0651,-0.0667,-0.068,-0.069,-0.0707,-0.073,-0.074,-0.0749,-0.0756,-0.0755,-0.0754,-0.0754,-0.0751,-0.0772,-0.0752,-0.0752,-0.0752,-0.0752,-0.0752,0,-0.0537,-0.055,-0.056,-0.0577,-0.0585,-0.06,-0.0615,-0.0621,-0.063,-0.0645,-0.0655,-0.0668,-0.068,-0.07,-0.0714,-0.0717,-0.0725,-0.072,-0.072,-0.0722,-0.0744,-0.0743,-0.0714,-0.0714,-0.0714,-0.0714,-0.0714,-0.0714,-0.0523,-0.0528,-0.054,-0.0551,-0.0564,-0.0574,-0.0582,-0.0593,-0.0605,-0.0619,-0.0629,-0.0642,-0.0659,-0.0675,-0.0687,-0.0692,-0.0696,-0.0689,-0.0697,-0.0717,-0.072,-0.0724,-0.0723,-0.069,-0.069,-0.0675,-0.0674,-0.0674]}]]